owner,sensor,date,latitude,longitude,vertical_datum,wind_speed,wind_to_direction,wind_speed_of_gust,qcFlag 
LUMCON,ioos:station:LUMCON:101:1,2017-04-01T00:00:00Z,29.2533,-90.6633,1.0,3.4,115.0,-9999.0,'1111122,1111122,1111122' 
LUMCON,ioos:station:LUMCON:101:1,2017-04-01T00:15:00Z,29.2533,-90.6633,1.0,3.1,113.0,-9999.0,'1111122,1111122,1111122' 
LUMCON,ioos:station:LUMCON:101:1,2017-04-01T00:30:00Z,29.2533,-90.6633,1.0,2.4,118.0,-9999.0,'1111122,1111122,1111122' 
LUMCON,ioos:station:LUMCON:101:1,2017-04-01T00:45:00Z,29.2533,-90.6633,1.0,5.2,98.0,-9999.0,'1111122,1111122,1111122' 
LUMCON,ioos:station:LUMCON:101:1,2017-04-01T01:00:00Z,29.2533,-90.6633,1.0,3.3,114.0,-9999.0,'1111122,1111122,1111122' 
LUMCON,ioos:station:LUMCON:101:1,2017-04-01T01:15:00Z,29.2533,-90.6633,1.0,3.1,106.0,-9999.0,'1111122,1111122,1111122' 
LUMCON,ioos:station:LUMCON:101:1,2017-04-01T01:30:00Z,29.2533,-90.6633,1.0,3.2,107.0,-9999.0,'1111122,1111122,1111122' 
LUMCON,ioos:station:LUMCON:101:1,2017-04-01T01:45:00Z,29.2533,-90.6633,1.0,4.2,121.0,-9999.0,'1111122,1111122,1111122' 
LUMCON,ioos:station:LUMCON:101:1,2017-04-01T02:00:00Z,29.2533,-90.6633,1.0,3.0,103.0,-9999.0,'1111122,1111122,1111122' 
LUMCON,ioos:station:LUMCON:101:1,2017-04-01T02:15:00Z,29.2533,-90.6633,1.0,3.3,111.0,-9999.0,'1111122,1111122,1111122' 
LUMCON,ioos:station:LUMCON:101:1,2017-04-01T02:30:00Z,29.2533,-90.6633,1.0,3.3,110.0,-9999.0,'1111122,1111122,1111122' 
LUMCON,ioos:station:LUMCON:101:1,2017-04-01T02:45:00Z,29.2533,-90.6633,1.0,3.2,110.0,-9999.0,'1111122,1111122,1111122' 
LUMCON,ioos:station:LUMCON:101:1,2017-04-01T03:00:00Z,29.2533,-90.6633,1.0,4.0,124.0,-9999.0,'1111122,1111122,1111122' 
LUMCON,ioos:station:LUMCON:101:1,2017-04-01T03:15:00Z,29.2533,-90.6633,1.0,4.7,128.0,-9999.0,'1111122,1111122,1111122' 
LUMCON,ioos:station:LUMCON:101:1,2017-04-01T03:30:00Z,29.2533,-90.6633,1.0,3.6,122.0,-9999.0,'1111122,1111122,1111122' 
LUMCON,ioos:station:LUMCON:101:1,2017-04-01T03:45:00Z,29.2533,-90.6633,1.0,4.8,135.0,-9999.0,'1111122,1111122,1111122' 
LUMCON,ioos:station:LUMCON:101:1,2017-04-01T04:00:00Z,29.2533,-90.6633,1.0,4.3,141.0,-9999.0,'1111122,1111122,1111122' 
LUMCON,ioos:station:LUMCON:101:1,2017-04-01T04:15:00Z,29.2533,-90.6633,1.0,3.2,150.0,-9999.0,'1111122,1111122,1111122' 
LUMCON,ioos:station:LUMCON:101:1,2017-04-01T04:30:00Z,29.2533,-90.6633,1.0,4.0,120.0,-9999.0,'1111122,1111122,1111122' 
LUMCON,ioos:station:LUMCON:101:1,2017-04-01T04:45:00Z,29.2533,-90.6633,1.0,4.1,127.0,-9999.0,'1111122,1111122,1111122' 
LUMCON,ioos:station:LUMCON:101:1,2017-04-01T05:00:00Z,29.2533,-90.6633,1.0,3.8,130.0,-9999.0,'1111122,1111122,1111122' 
LUMCON,ioos:station:LUMCON:101:1,2017-04-01T05:15:00Z,29.2533,-90.6633,1.0,4.6,127.0,-9999.0,'1111122,1111122,1111122' 
LUMCON,ioos:station:LUMCON:101:1,2017-04-01T05:30:00Z,29.2533,-90.6633,1.0,4.1,129.0,-9999.0,'1111122,1111122,1111122' 
LUMCON,ioos:station:LUMCON:101:1,2017-04-01T05:45:00Z,29.2533,-90.6633,1.0,3.1,134.0,-9999.0,'1111122,1111122,1111122' 
LUMCON,ioos:station:LUMCON:101:1,2017-04-01T06:00:00Z,29.2533,-90.6633,1.0,5.2,138.0,-9999.0,'1111122,1111122,1111122' 
LUMCON,ioos:station:LUMCON:101:1,2017-04-01T06:15:00Z,29.2533,-90.6633,1.0,4.0,130.0,-9999.0,'1111122,1111122,1111122' 
LUMCON,ioos:station:LUMCON:101:1,2017-04-01T06:30:00Z,29.2533,-90.6633,1.0,3.2,137.0,-9999.0,'1111122,1111122,1111122' 
LUMCON,ioos:station:LUMCON:101:1,2017-04-01T06:45:00Z,29.2533,-90.6633,1.0,4.0,129.0,-9999.0,'1111122,1111122,1111122' 
LUMCON,ioos:station:LUMCON:101:1,2017-04-01T07:00:00Z,29.2533,-90.6633,1.0,4.2,115.0,-9999.0,'1111122,1111122,1111122' 
LUMCON,ioos:station:LUMCON:101:1,2017-04-01T07:15:00Z,29.2533,-90.6633,1.0,4.6,115.0,-9999.0,'1111122,1111122,1111122' 
LUMCON,ioos:station:LUMCON:101:1,2017-04-01T07:30:00Z,29.2533,-90.6633,1.0,3.7,129.0,-9999.0,'1111122,1111122,1111122' 
LUMCON,ioos:station:LUMCON:101:1,2017-04-01T07:45:00Z,29.2533,-90.6633,1.0,2.9,128.0,-9999.0,'1111122,1111122,1111122' 
LUMCON,ioos:station:LUMCON:101:1,2017-04-01T08:00:00Z,29.2533,-90.6633,1.0,3.2,125.0,-9999.0,'1111122,1111122,1111122' 
LUMCON,ioos:station:LUMCON:101:1,2017-04-01T08:15:00Z,29.2533,-90.6633,1.0,4.2,119.0,-9999.0,'1111122,1111122,1111122' 
LUMCON,ioos:station:LUMCON:101:1,2017-04-01T08:30:00Z,29.2533,-90.6633,1.0,4.3,131.0,-9999.0,'1111122,1111122,1111122' 
LUMCON,ioos:station:LUMCON:101:1,2017-04-01T08:45:00Z,29.2533,-90.6633,1.0,4.6,118.0,-9999.0,'1111122,1111122,1111122' 
LUMCON,ioos:station:LUMCON:101:1,2017-04-01T09:00:00Z,29.2533,-90.6633,1.0,2.7,114.0,-9999.0,'1111122,1111122,1111122' 
LUMCON,ioos:station:LUMCON:101:1,2017-04-01T09:15:00Z,29.2533,-90.6633,1.0,2.8,108.0,-9999.0,'1111122,1111122,1111122' 
LUMCON,ioos:station:LUMCON:101:1,2017-04-01T09:30:00Z,29.2533,-90.6633,1.0,2.9,103.0,-9999.0,'1111122,1111122,1111122' 
LUMCON,ioos:station:LUMCON:101:1,2017-04-01T09:45:00Z,29.2533,-90.6633,1.0,2.9,104.0,-9999.0,'1111122,1111122,1111122' 
LUMCON,ioos:station:LUMCON:101:1,2017-04-01T10:00:00Z,29.2533,-90.6633,1.0,2.4,99.0,-9999.0,'1111122,1111122,1111122' 
LUMCON,ioos:station:LUMCON:101:1,2017-04-01T10:15:00Z,29.2533,-90.6633,1.0,2.9,103.0,-9999.0,'1111122,1111122,1111122' 
LUMCON,ioos:station:LUMCON:101:1,2017-04-01T10:30:00Z,29.2533,-90.6633,1.0,2.8,99.0,-9999.0,'1111122,1111122,1111122' 
LUMCON,ioos:station:LUMCON:101:1,2017-04-01T10:45:00Z,29.2533,-90.6633,1.0,2.3,92.0,-9999.0,'1111122,1111122,1111122' 
LUMCON,ioos:station:LUMCON:101:1,2017-04-01T11:00:00Z,29.2533,-90.6633,1.0,2.6,88.0,-9999.0,'1111122,1111122,1111122' 
LUMCON,ioos:station:LUMCON:101:1,2017-04-01T11:15:00Z,29.2533,-90.6633,1.0,1.9,97.0,-9999.0,'1111122,1111122,1111122' 
LUMCON,ioos:station:LUMCON:101:1,2017-04-01T11:30:00Z,29.2533,-90.6633,1.0,2.5,79.0,-9999.0,'1111122,1111122,1111122' 
LUMCON,ioos:station:LUMCON:101:1,2017-04-01T11:45:00Z,29.2533,-90.6633,1.0,2.0,79.0,-9999.0,'1111122,1111122,1111122' 
LUMCON,ioos:station:LUMCON:101:1,2017-04-01T12:00:00Z,29.2533,-90.6633,1.0,2.0,81.0,-9999.0,'1111122,1111122,1111122' 
LUMCON,ioos:station:LUMCON:101:1,2017-04-01T12:15:00Z,29.2533,-90.6633,1.0,1.8,67.0,-9999.0,'1111122,1111122,1111122' 
LUMCON,ioos:station:LUMCON:101:1,2017-04-01T12:30:00Z,29.2533,-90.6633,1.0,2.5,76.0,-9999.0,'1111122,1111122,1111122' 
LUMCON,ioos:station:LUMCON:101:1,2017-04-01T12:45:00Z,29.2533,-90.6633,1.0,3.3,87.0,-9999.0,'1111122,1111122,1111122' 
LUMCON,ioos:station:LUMCON:101:1,2017-04-01T13:00:00Z,29.2533,-90.6633,1.0,3.7,93.0,-9999.0,'1111122,1111122,1111122' 
LUMCON,ioos:station:LUMCON:101:1,2017-04-01T13:15:00Z,29.2533,-90.6633,1.0,3.8,90.0,-9999.0,'1111122,1111122,1111122' 
LUMCON,ioos:station:LUMCON:101:1,2017-04-01T13:30:00Z,29.2533,-90.6633,1.0,5.3,90.0,-9999.0,'1111122,1111122,1111122' 
LUMCON,ioos:station:LUMCON:101:1,2017-04-01T13:45:00Z,29.2533,-90.6633,1.0,5.0,72.0,-9999.0,'1111122,1111122,1111122' 
LUMCON,ioos:station:LUMCON:101:1,2017-04-01T14:00:00Z,29.2533,-90.6633,1.0,4.7,100.0,-9999.0,'1111122,1111122,1111122' 
LUMCON,ioos:station:LUMCON:101:1,2017-04-01T14:15:00Z,29.2533,-90.6633,1.0,7.3,80.0,-9999.0,'1111122,1111122,1111122' 
LUMCON,ioos:station:LUMCON:101:1,2017-04-01T14:30:00Z,29.2533,-90.6633,1.0,6.8,86.0,-9999.0,'1111122,1111122,1111122' 
LUMCON,ioos:station:LUMCON:101:1,2017-04-01T14:45:00Z,29.2533,-90.6633,1.0,5.8,74.0,-9999.0,'1111122,1111122,1111122' 
LUMCON,ioos:station:LUMCON:101:1,2017-04-01T15:00:00Z,29.2533,-90.6633,1.0,3.8,67.0,-9999.0,'1111122,1111122,1111122' 
LUMCON,ioos:station:LUMCON:101:1,2017-04-01T15:15:00Z,29.2533,-90.6633,1.0,2.2,80.0,-9999.0,'1111122,1111122,1111122' 
LUMCON,ioos:station:LUMCON:101:1,2017-04-01T15:30:00Z,29.2533,-90.6633,1.0,3.8,76.0,-9999.0,'1111122,1111122,1111122' 
LUMCON,ioos:station:LUMCON:101:1,2017-04-01T15:45:00Z,29.2533,-90.6633,1.0,8.5,90.0,-9999.0,'1111122,1111122,1111122' 
LUMCON,ioos:station:LUMCON:101:1,2017-04-01T16:00:00Z,29.2533,-90.6633,1.0,7.5,83.0,-9999.0,'1111122,1111122,1111122' 
LUMCON,ioos:station:LUMCON:101:1,2017-04-01T16:15:00Z,29.2533,-90.6633,1.0,7.6,92.0,-9999.0,'1111122,1111122,1111122' 
LUMCON,ioos:station:LUMCON:101:1,2017-04-01T16:30:00Z,29.2533,-90.6633,1.0,7.8,83.0,-9999.0,'1111122,1111122,1111122' 
LUMCON,ioos:station:LUMCON:101:1,2017-04-01T16:45:00Z,29.2533,-90.6633,1.0,8.0,83.0,-9999.0,'1111122,1111122,1111122' 
LUMCON,ioos:station:LUMCON:101:1,2017-04-01T17:00:00Z,29.2533,-90.6633,1.0,6.4,81.0,-9999.0,'1111122,1111122,1111122' 
LUMCON,ioos:station:LUMCON:101:1,2017-04-01T17:15:00Z,29.2533,-90.6633,1.0,6.6,78.0,-9999.0,'1111122,1111122,1111122' 
LUMCON,ioos:station:LUMCON:101:1,2017-04-01T17:30:00Z,29.2533,-90.6633,1.0,7.2,101.0,-9999.0,'1111122,1111122,1111122' 
LUMCON,ioos:station:LUMCON:101:1,2017-04-01T17:45:00Z,29.2533,-90.6633,1.0,8.1,81.0,-9999.0,'1111122,1111122,1111122' 
LUMCON,ioos:station:LUMCON:101:1,2017-04-01T18:00:00Z,29.2533,-90.6633,1.0,7.0,85.0,-9999.0,'1111122,1111122,1111122' 
LUMCON,ioos:station:LUMCON:101:1,2017-04-01T18:15:00Z,29.2533,-90.6633,1.0,6.5,86.0,-9999.0,'1111122,1111122,1111122' 
LUMCON,ioos:station:LUMCON:101:1,2017-04-01T18:30:00Z,29.2533,-90.6633,1.0,8.2,75.0,-9999.0,'1111122,1111122,1111122' 
LUMCON,ioos:station:LUMCON:101:1,2017-04-01T18:45:00Z,29.2533,-90.6633,1.0,4.3,77.0,-9999.0,'1111122,1111122,1111122' 
LUMCON,ioos:station:LUMCON:101:1,2017-04-01T19:00:00Z,29.2533,-90.6633,1.0,6.0,86.0,-9999.0,'1111122,1111122,1111122' 
LUMCON,ioos:station:LUMCON:101:1,2017-04-01T19:15:00Z,29.2533,-90.6633,1.0,8.5,83.0,-9999.0,'1111122,1111122,1111122' 
LUMCON,ioos:station:LUMCON:101:1,2017-04-01T19:30:00Z,29.2533,-90.6633,1.0,8.2,84.0,-9999.0,'1111122,1111122,1111122' 
LUMCON,ioos:station:LUMCON:101:1,2017-04-01T19:45:00Z,29.2533,-90.6633,1.0,7.5,89.0,-9999.0,'1111122,1111122,1111122' 
LUMCON,ioos:station:LUMCON:101:1,2017-04-01T20:00:00Z,29.2533,-90.6633,1.0,7.9,96.0,-9999.0,'1111122,1111122,1111122' 
LUMCON,ioos:station:LUMCON:101:1,2017-04-01T20:15:00Z,29.2533,-90.6633,1.0,6.5,78.0,-9999.0,'1111122,1111122,1111122' 
LUMCON,ioos:station:LUMCON:101:1,2017-04-01T20:30:00Z,29.2533,-90.6633,1.0,5.8,77.0,-9999.0,'1111122,1111122,1111122' 
LUMCON,ioos:station:LUMCON:101:1,2017-04-01T20:45:00Z,29.2533,-90.6633,1.0,6.7,82.0,-9999.0,'1111122,1111122,1111122' 
LUMCON,ioos:station:LUMCON:101:1,2017-04-01T21:00:00Z,29.2533,-90.6633,1.0,7.5,84.0,-9999.0,'1111122,1111122,1111122' 
LUMCON,ioos:station:LUMCON:101:1,2017-04-01T21:15:00Z,29.2533,-90.6633,1.0,7.7,75.0,-9999.0,'1111122,1111122,1111122' 
LUMCON,ioos:station:LUMCON:101:1,2017-04-01T21:30:00Z,29.2533,-90.6633,1.0,5.5,77.0,-9999.0,'1111122,1111122,1111122' 
LUMCON,ioos:station:LUMCON:101:1,2017-04-01T21:45:00Z,29.2533,-90.6633,1.0,9.0,87.0,-9999.0,'1111122,1111122,1111122' 
LUMCON,ioos:station:LUMCON:101:1,2017-04-01T22:00:00Z,29.2533,-90.6633,1.0,6.8,90.0,-9999.0,'1111122,1111122,1111122' 
LUMCON,ioos:station:LUMCON:101:1,2017-04-01T22:15:00Z,29.2533,-90.6633,1.0,5.6,93.0,-9999.0,'1111122,1111122,1111122' 
LUMCON,ioos:station:LUMCON:101:1,2017-04-01T22:30:00Z,29.2533,-90.6633,1.0,6.0,91.0,-9999.0,'1111122,1111122,1111122' 
LUMCON,ioos:station:LUMCON:101:1,2017-04-01T22:45:00Z,29.2533,-90.6633,1.0,7.4,98.0,-9999.0,'1111122,1111122,1111122' 
LUMCON,ioos:station:LUMCON:101:1,2017-04-01T23:00:00Z,29.2533,-90.6633,1.0,6.8,82.0,-9999.0,'1111122,1111122,1111122' 
LUMCON,ioos:station:LUMCON:101:1,2017-04-01T23:15:00Z,29.2533,-90.6633,1.0,7.0,99.0,-9999.0,'1111122,1111122,1111122' 
LUMCON,ioos:station:LUMCON:101:1,2017-04-01T23:30:00Z,29.2533,-90.6633,1.0,6.8,96.0,-9999.0,'1111122,1111122,1111122' 
LUMCON,ioos:station:LUMCON:101:1,2017-04-01T23:45:00Z,29.2533,-90.6633,1.0,5.7,87.0,-9999.0,'1111122,1111122,1111122' 
LUMCON,ioos:station:LUMCON:101:1,2017-04-02T00:00:00Z,29.2533,-90.6633,1.0,6.6,97.0,-9999.0,'1111122,1111122,1111122' 
LUMCON,ioos:station:LUMCON:101:1,2017-04-02T00:15:00Z,29.2533,-90.6633,1.0,5.5,95.0,-9999.0,'1111122,1111122,1111122' 
LUMCON,ioos:station:LUMCON:101:1,2017-04-02T00:30:00Z,29.2533,-90.6633,1.0,6.8,91.0,-9999.0,'1111122,1111122,1111122' 
LUMCON,ioos:station:LUMCON:101:1,2017-04-02T00:45:00Z,29.2533,-90.6633,1.0,5.4,99.0,-9999.0,'1111122,1111122,1111122' 
LUMCON,ioos:station:LUMCON:101:1,2017-04-02T01:00:00Z,29.2533,-90.6633,1.0,8.2,89.0,-9999.0,'1111122,1111122,1111122' 
LUMCON,ioos:station:LUMCON:101:1,2017-04-02T01:15:00Z,29.2533,-90.6633,1.0,5.0,96.0,-9999.0,'1111122,1111122,1111122' 
LUMCON,ioos:station:LUMCON:101:1,2017-04-02T01:30:00Z,29.2533,-90.6633,1.0,6.3,99.0,-9999.0,'1111122,1111122,1111122' 
LUMCON,ioos:station:LUMCON:101:1,2017-04-02T01:45:00Z,29.2533,-90.6633,1.0,4.4,99.0,-9999.0,'1111122,1111122,1111122' 
LUMCON,ioos:station:LUMCON:101:1,2017-04-02T02:00:00Z,29.2533,-90.6633,1.0,6.7,89.0,-9999.0,'1111122,1111122,1111122' 
LUMCON,ioos:station:LUMCON:101:1,2017-04-02T02:15:00Z,29.2533,-90.6633,1.0,7.4,99.0,-9999.0,'1111122,1111122,1111122' 
LUMCON,ioos:station:LUMCON:101:1,2017-04-02T02:30:00Z,29.2533,-90.6633,1.0,7.6,91.0,-9999.0,'1111122,1111122,1111122' 
LUMCON,ioos:station:LUMCON:101:1,2017-04-02T02:45:00Z,29.2533,-90.6633,1.0,6.0,88.0,-9999.0,'1111122,1111122,1111122' 
LUMCON,ioos:station:LUMCON:101:1,2017-04-02T03:00:00Z,29.2533,-90.6633,1.0,6.4,90.0,-9999.0,'1111122,1111122,1111122' 
LUMCON,ioos:station:LUMCON:101:1,2017-04-02T03:15:00Z,29.2533,-90.6633,1.0,6.5,97.0,-9999.0,'1111122,1111122,1111122' 
LUMCON,ioos:station:LUMCON:101:1,2017-04-02T03:30:00Z,29.2533,-90.6633,1.0,7.2,101.0,-9999.0,'1111122,1111122,1111122' 
LUMCON,ioos:station:LUMCON:101:1,2017-04-02T03:45:00Z,29.2533,-90.6633,1.0,7.9,95.0,-9999.0,'1111122,1111122,1111122' 
LUMCON,ioos:station:LUMCON:101:1,2017-04-02T04:00:00Z,29.2533,-90.6633,1.0,6.9,87.0,-9999.0,'1111122,1111122,1111122' 
LUMCON,ioos:station:LUMCON:101:1,2017-04-02T04:15:00Z,29.2533,-90.6633,1.0,8.6,98.0,-9999.0,'1111122,1111122,1111122' 
LUMCON,ioos:station:LUMCON:101:1,2017-04-02T04:30:00Z,29.2533,-90.6633,1.0,7.0,91.0,-9999.0,'1111122,1111122,1111122' 
LUMCON,ioos:station:LUMCON:101:1,2017-04-02T04:45:00Z,29.2533,-90.6633,1.0,7.3,96.0,-9999.0,'1111122,1111122,1111122' 
LUMCON,ioos:station:LUMCON:101:1,2017-04-02T05:00:00Z,29.2533,-90.6633,1.0,5.7,87.0,-9999.0,'1111122,1111122,1111122' 
LUMCON,ioos:station:LUMCON:101:1,2017-04-02T05:15:00Z,29.2533,-90.6633,1.0,6.6,100.0,-9999.0,'1111122,1111122,1111122' 
LUMCON,ioos:station:LUMCON:101:1,2017-04-02T05:30:00Z,29.2533,-90.6633,1.0,4.0,90.0,-9999.0,'1111122,1111122,1111122' 
LUMCON,ioos:station:LUMCON:101:1,2017-04-02T05:45:00Z,29.2533,-90.6633,1.0,5.9,87.0,-9999.0,'1111122,1111122,1111122' 
LUMCON,ioos:station:LUMCON:101:1,2017-04-02T06:00:00Z,29.2533,-90.6633,1.0,7.9,96.0,-9999.0,'1111122,1111122,1111122' 
LUMCON,ioos:station:LUMCON:101:1,2017-04-02T06:15:00Z,29.2533,-90.6633,1.0,9.1,96.0,-9999.0,'1111122,1111122,1111122' 
LUMCON,ioos:station:LUMCON:101:1,2017-04-02T06:30:00Z,29.2533,-90.6633,1.0,8.7,99.0,-9999.0,'1111122,1111122,1111122' 
LUMCON,ioos:station:LUMCON:101:1,2017-04-02T06:45:00Z,29.2533,-90.6633,1.0,7.4,103.0,-9999.0,'1111122,1111122,1111122' 
LUMCON,ioos:station:LUMCON:101:1,2017-04-02T07:00:00Z,29.2533,-90.6633,1.0,8.1,106.0,-9999.0,'1111122,1111122,1111122' 
LUMCON,ioos:station:LUMCON:101:1,2017-04-02T07:15:00Z,29.2533,-90.6633,1.0,9.1,105.0,-9999.0,'1111122,1111122,1111122' 
LUMCON,ioos:station:LUMCON:101:1,2017-04-02T07:30:00Z,29.2533,-90.6633,1.0,8.0,95.0,-9999.0,'1111122,1111122,1111122' 
LUMCON,ioos:station:LUMCON:101:1,2017-04-02T07:45:00Z,29.2533,-90.6633,1.0,6.7,86.0,-9999.0,'1111122,1111122,1111122' 
LUMCON,ioos:station:LUMCON:101:1,2017-04-02T08:00:00Z,29.2533,-90.6633,1.0,6.8,94.0,-9999.0,'1111122,1111122,1111122' 
LUMCON,ioos:station:LUMCON:101:1,2017-04-02T08:15:00Z,29.2533,-90.6633,1.0,6.9,111.0,-9999.0,'1111122,1111122,1111122' 
LUMCON,ioos:station:LUMCON:101:1,2017-04-02T08:30:00Z,29.2533,-90.6633,1.0,7.5,100.0,-9999.0,'1111122,1111122,1111122' 
LUMCON,ioos:station:LUMCON:101:1,2017-04-02T08:45:00Z,29.2533,-90.6633,1.0,6.8,97.0,-9999.0,'1111122,1111122,1111122' 
LUMCON,ioos:station:LUMCON:101:1,2017-04-02T09:00:00Z,29.2533,-90.6633,1.0,5.1,105.0,-9999.0,'1111122,1111122,1111122' 
LUMCON,ioos:station:LUMCON:101:1,2017-04-02T09:15:00Z,29.2533,-90.6633,1.0,7.3,108.0,-9999.0,'1111122,1111122,1111122' 
LUMCON,ioos:station:LUMCON:101:1,2017-04-02T09:30:00Z,29.2533,-90.6633,1.0,5.8,109.0,-9999.0,'1111122,1111122,1111122' 
LUMCON,ioos:station:LUMCON:101:1,2017-04-02T09:45:00Z,29.2533,-90.6633,1.0,8.4,116.0,-9999.0,'1111122,1111122,1111122' 
LUMCON,ioos:station:LUMCON:101:1,2017-04-02T10:00:00Z,29.2533,-90.6633,1.0,6.1,114.0,-9999.0,'1111122,1111122,1111122' 
LUMCON,ioos:station:LUMCON:101:1,2017-04-02T10:15:00Z,29.2533,-90.6633,1.0,7.1,108.0,-9999.0,'1111122,1111122,1111122' 
LUMCON,ioos:station:LUMCON:101:1,2017-04-02T10:30:00Z,29.2533,-90.6633,1.0,7.1,114.0,-9999.0,'1111122,1111122,1111122' 
LUMCON,ioos:station:LUMCON:101:1,2017-04-02T10:45:00Z,29.2533,-90.6633,1.0,5.8,116.0,-9999.0,'1111122,1111122,1111122' 
LUMCON,ioos:station:LUMCON:101:1,2017-04-02T11:00:00Z,29.2533,-90.6633,1.0,7.2,107.0,-9999.0,'1111122,1111122,1111122' 
LUMCON,ioos:station:LUMCON:101:1,2017-04-02T11:15:00Z,29.2533,-90.6633,1.0,7.4,109.0,-9999.0,'1111122,1111122,1111122' 
LUMCON,ioos:station:LUMCON:101:1,2017-04-02T11:30:00Z,29.2533,-90.6633,1.0,6.1,99.0,-9999.0,'1111122,1111122,1111122' 
LUMCON,ioos:station:LUMCON:101:1,2017-04-02T11:45:00Z,29.2533,-90.6633,1.0,6.6,113.0,-9999.0,'1111122,1111122,1111122' 
LUMCON,ioos:station:LUMCON:101:1,2017-04-02T12:00:00Z,29.2533,-90.6633,1.0,5.9,106.0,-9999.0,'1111122,1111122,1111122' 
LUMCON,ioos:station:LUMCON:101:1,2017-04-02T12:15:00Z,29.2533,-90.6633,1.0,5.4,100.0,-9999.0,'1111122,1111122,1111122' 
LUMCON,ioos:station:LUMCON:101:1,2017-04-02T12:30:00Z,29.2533,-90.6633,1.0,6.2,96.0,-9999.0,'1111122,1111122,1111122' 
LUMCON,ioos:station:LUMCON:101:1,2017-04-02T12:45:00Z,29.2533,-90.6633,1.0,5.5,96.0,-9999.0,'1111122,1111122,1111122' 
LUMCON,ioos:station:LUMCON:101:1,2017-04-02T13:00:00Z,29.2533,-90.6633,1.0,6.3,114.0,-9999.0,'1111122,1111122,1111122' 
LUMCON,ioos:station:LUMCON:101:1,2017-04-02T13:15:00Z,29.2533,-90.6633,1.0,8.7,100.0,-9999.0,'1111122,1111122,1111122' 
LUMCON,ioos:station:LUMCON:101:1,2017-04-02T13:30:00Z,29.2533,-90.6633,1.0,7.4,95.0,-9999.0,'1111122,1111122,1111122' 
LUMCON,ioos:station:LUMCON:101:1,2017-04-02T13:45:00Z,29.2533,-90.6633,1.0,8.3,100.0,-9999.0,'1111122,1111122,1111122' 
LUMCON,ioos:station:LUMCON:101:1,2017-04-02T14:00:00Z,29.2533,-90.6633,1.0,5.7,94.0,-9999.0,'1111122,1111122,1111122' 
LUMCON,ioos:station:LUMCON:101:1,2017-04-02T14:15:00Z,29.2533,-90.6633,1.0,8.3,106.0,-9999.0,'1111122,1111122,1111122' 
LUMCON,ioos:station:LUMCON:101:1,2017-04-02T14:30:00Z,29.2533,-90.6633,1.0,6.1,104.0,-9999.0,'1111122,1111122,1111122' 
LUMCON,ioos:station:LUMCON:101:1,2017-04-02T14:45:00Z,29.2533,-90.6633,1.0,8.7,104.0,-9999.0,'1111122,1111122,1111122' 
LUMCON,ioos:station:LUMCON:101:1,2017-04-02T15:00:00Z,29.2533,-90.6633,1.0,9.0,101.0,-9999.0,'1111122,1111122,1111122' 
LUMCON,ioos:station:LUMCON:101:1,2017-04-02T15:15:00Z,29.2533,-90.6633,1.0,10.2,100.0,-9999.0,'1111122,1111122,1111122' 
LUMCON,ioos:station:LUMCON:101:1,2017-04-02T15:30:00Z,29.2533,-90.6633,1.0,7.5,100.0,-9999.0,'1111122,1111122,1111122' 
LUMCON,ioos:station:LUMCON:101:1,2017-04-02T15:45:00Z,29.2533,-90.6633,1.0,8.2,107.0,-9999.0,'1111122,1111122,1111122' 
LUMCON,ioos:station:LUMCON:101:1,2017-04-02T16:00:00Z,29.2533,-90.6633,1.0,7.2,106.0,-9999.0,'1111122,1111122,1111122' 
LUMCON,ioos:station:LUMCON:101:1,2017-04-02T16:15:00Z,29.2533,-90.6633,1.0,7.7,112.0,-9999.0,'1111122,1111122,1111122' 
LUMCON,ioos:station:LUMCON:101:1,2017-04-02T16:30:00Z,29.2533,-90.6633,1.0,7.8,109.0,-9999.0,'1111122,1111122,1111122' 
LUMCON,ioos:station:LUMCON:101:1,2017-04-02T16:45:00Z,29.2533,-90.6633,1.0,6.5,87.0,-9999.0,'1111122,1111122,1111122' 
LUMCON,ioos:station:LUMCON:101:1,2017-04-02T17:00:00Z,29.2533,-90.6633,1.0,6.6,85.0,-9999.0,'1111122,1111122,1111122' 
LUMCON,ioos:station:LUMCON:101:1,2017-04-02T17:15:00Z,29.2533,-90.6633,1.0,6.0,102.0,-9999.0,'1111122,1111122,1111122' 
LUMCON,ioos:station:LUMCON:101:1,2017-04-02T17:30:00Z,29.2533,-90.6633,1.0,6.1,101.0,-9999.0,'1111122,1111122,1111122' 
LUMCON,ioos:station:LUMCON:101:1,2017-04-02T17:45:00Z,29.2533,-90.6633,1.0,7.9,114.0,-9999.0,'1111122,1111122,1111122' 
LUMCON,ioos:station:LUMCON:101:1,2017-04-02T18:00:00Z,29.2533,-90.6633,1.0,7.3,107.0,-9999.0,'1111122,1111122,1111122' 
LUMCON,ioos:station:LUMCON:101:1,2017-04-02T18:15:00Z,29.2533,-90.6633,1.0,6.7,103.0,-9999.0,'1111122,1111122,1111122' 
LUMCON,ioos:station:LUMCON:101:1,2017-04-02T18:30:00Z,29.2533,-90.6633,1.0,10.5,114.0,-9999.0,'1111122,1111122,1111122' 
LUMCON,ioos:station:LUMCON:101:1,2017-04-02T18:45:00Z,29.2533,-90.6633,1.0,7.4,108.0,-9999.0,'1111122,1111122,1111122' 
LUMCON,ioos:station:LUMCON:101:1,2017-04-02T19:00:00Z,29.2533,-90.6633,1.0,9.1,114.0,-9999.0,'1111122,1111122,1111122' 
LUMCON,ioos:station:LUMCON:101:1,2017-04-02T19:15:00Z,29.2533,-90.6633,1.0,7.3,114.0,-9999.0,'1111122,1111122,1111122' 
LUMCON,ioos:station:LUMCON:101:1,2017-04-02T19:30:00Z,29.2533,-90.6633,1.0,8.8,116.0,-9999.0,'1111122,1111122,1111122' 
LUMCON,ioos:station:LUMCON:101:1,2017-04-02T19:45:00Z,29.2533,-90.6633,1.0,7.6,128.0,-9999.0,'1111122,1111122,1111122' 
LUMCON,ioos:station:LUMCON:101:1,2017-04-02T20:00:00Z,29.2533,-90.6633,1.0,11.9,127.0,-9999.0,'1111122,1111122,1111122' 
LUMCON,ioos:station:LUMCON:101:1,2017-04-02T20:15:00Z,29.2533,-90.6633,1.0,10.1,119.0,-9999.0,'1111122,1111122,1111122' 
LUMCON,ioos:station:LUMCON:101:1,2017-04-02T20:30:00Z,29.2533,-90.6633,1.0,9.5,116.0,-9999.0,'1111122,1111122,1111122' 
LUMCON,ioos:station:LUMCON:101:1,2017-04-02T20:45:00Z,29.2533,-90.6633,1.0,8.7,132.0,-9999.0,'1111122,1111122,1111122' 
LUMCON,ioos:station:LUMCON:101:1,2017-04-02T21:00:00Z,29.2533,-90.6633,1.0,9.9,124.0,-9999.0,'1111122,1111122,1111122' 
LUMCON,ioos:station:LUMCON:101:1,2017-04-02T21:15:00Z,29.2533,-90.6633,1.0,11.0,114.0,-9999.0,'1111122,1111122,1111122' 
LUMCON,ioos:station:LUMCON:101:1,2017-04-02T21:30:00Z,29.2533,-90.6633,1.0,9.8,120.0,-9999.0,'1111122,1111122,1111122' 
LUMCON,ioos:station:LUMCON:101:1,2017-04-02T21:45:00Z,29.2533,-90.6633,1.0,11.2,125.0,-9999.0,'1111122,1111122,1111122' 
LUMCON,ioos:station:LUMCON:101:1,2017-04-02T22:00:00Z,29.2533,-90.6633,1.0,11.5,124.0,-9999.0,'1111122,1111122,1111122' 
LUMCON,ioos:station:LUMCON:101:1,2017-04-02T22:15:00Z,29.2533,-90.6633,1.0,11.5,124.0,-9999.0,'1111122,1111122,1111122' 
LUMCON,ioos:station:LUMCON:101:1,2017-04-02T22:30:00Z,29.2533,-90.6633,1.0,13.3,129.0,-9999.0,'1111122,1111122,1111122' 
LUMCON,ioos:station:LUMCON:101:1,2017-04-02T22:45:00Z,29.2533,-90.6633,1.0,10.1,118.0,-9999.0,'1111122,1111122,1111122' 
LUMCON,ioos:station:LUMCON:101:1,2017-04-02T23:00:00Z,29.2533,-90.6633,1.0,9.3,125.0,-9999.0,'1111122,1111122,1111122' 
LUMCON,ioos:station:LUMCON:101:1,2017-04-02T23:15:00Z,29.2533,-90.6633,1.0,10.2,128.0,-9999.0,'1111122,1111122,1111122' 
LUMCON,ioos:station:LUMCON:101:1,2017-04-02T23:30:00Z,29.2533,-90.6633,1.0,9.3,120.0,-9999.0,'1111122,1111122,1111122' 
LUMCON,ioos:station:LUMCON:101:1,2017-04-02T23:45:00Z,29.2533,-90.6633,1.0,7.8,115.0,-9999.0,'1111122,1111122,1111122' 
LUMCON,ioos:station:LUMCON:101:1,2017-04-03T00:00:00Z,29.2533,-90.6633,1.0,7.6,120.0,-9999.0,'1111122,1111122,1111122' 
LUMCON,ioos:station:LUMCON:101:1,2017-04-03T00:15:00Z,29.2533,-90.6633,1.0,9.7,122.0,-9999.0,'1111122,1111122,1111122' 
LUMCON,ioos:station:LUMCON:101:1,2017-04-03T00:30:00Z,29.2533,-90.6633,1.0,7.9,125.0,-9999.0,'1111122,1111122,1111122' 
LUMCON,ioos:station:LUMCON:101:1,2017-04-03T00:45:00Z,29.2533,-90.6633,1.0,9.3,119.0,-9999.0,'1111122,1111122,1111122' 
LUMCON,ioos:station:LUMCON:101:1,2017-04-03T01:00:00Z,29.2533,-90.6633,1.0,8.5,114.0,-9999.0,'1111122,1111122,1111122' 
LUMCON,ioos:station:LUMCON:101:1,2017-04-03T01:15:00Z,29.2533,-90.6633,1.0,11.6,125.0,-9999.0,'1111122,1111122,1111122' 
LUMCON,ioos:station:LUMCON:101:1,2017-04-03T01:30:00Z,29.2533,-90.6633,1.0,6.8,128.0,-9999.0,'1111122,1111122,1111122' 